MST,Max TemperatureF,Mean TemperatureF,Min TemperatureF,Max Dew PointF,MeanDew PointF,Min DewpointF,Max Humidity, Mean Humidity, Min Humidity, Max Sea Level PressureIn, Mean Sea Level PressureIn, Min Sea Level PressureIn, Max VisibilityMiles, Mean VisibilityMiles, Min VisibilityMiles, Max Wind SpeedMPH, Mean Wind SpeedMPH, Max Gust SpeedMPH,PrecipitationIn, CloudCover, Events, WindDirDegrees
2011-12-1,37,30,23,25,22,20,92,74,56,30.75,30.55,30.13,10,10,10,13,3,15,0.00,6,,186
2011-12-2,41,30,18,24,19,13,88,61,33,30.35,30.18,29.98,10,10,10,15,3,20,0.00,4,,219
2011-12-3,32,22,11,24,17,10,92,76,59,30.37,30.33,30.21,10,10,10,10,2,13,0.00,5,,160
2011-12-4,33,22,11,27,16,5,100,66,32,30.63,30.47,30.23,10,8,1,15,5,24,0.03,4,Snow,10
2011-12-5,30,22,14,20,15,9,84,67,50,30.58,30.51,30.43,10,10,10,9,1,18,0.00,8,,43
2011-12-6,35,24,13,21,18,11,88,70,51,30.43,30.37,30.24,10,10,9,20,1,38,0.00,5,,263
2011-12-7,34,22,10,23,15,7,92,78,64,30.40,30.35,30.19,10,10,9,23,0,,0.00,0,,-1
2011-12-8,28,17,6,21,12,5,92,87,81,30.46,30.38,30.25,10,10,7,5,1,6,0.00,2,,289
2011-12-9,30,19,7,20,12,5,92,78,63,30.60,30.52,30.32,10,10,8,5,0,35,0.00,2,,350
2011-12-10,25,16,6,23,17,5,96,90,83,30.51,30.20,29.97,10,5,0,10,1,,0.00,7,Fog,316
2011-12-11,28,25,22,24,22,19,100,91,81,30.10,30.03,29.93,10,7,2,23,2,29,0.02,8,Snow,4
2011-12-12,33,28,22,23,19,17,92,73,54,30.21,30.16,30.07,10,10,6,14,4,59,T,6,Snow,343
2011-12-13,29,25,20,20,18,17,91,77,63,30.15,30.11,30.07,10,10,10,3,1,14,0.00,8,,315
2011-12-14,30,27,24,24,22,19,92,81,69,30.23,30.16,29.99,10,10,9,25,0,26,T,8,Snow,-1
2011-12-15,33,30,26,31,26,23,100,92,84,30.43,30.15,30.06,10,4,0,23,1,87,0.11,8,Fog-Snow,196
2011-12-16,33,26,18,30,27,19,100,92,84,30.50,30.44,30.36,10,9,4,6,0,7,T,8,Snow,290
2011-12-17,41,31,20,33,25,19,100,88,76,30.47,30.27,30.03,10,3,0,6,0,6,0.00,5,Fog,298
2011-12-18,37,29,20,34,26,19,100,88,75,30.27,30.04,29.92,10,6,0,17,3,26,T,8,Fog-Rain,15
2011-12-19,38,31,23,31,27,21,100,85,70,30.36,30.32,30.24,10,10,10,12,3,14,0.00,5,,159
2011-12-20,34,28,22,27,25,20,88,79,69,30.29,30.09,29.97,10,10,6,9,3,12,T,7,Snow,218
2011-12-21,40,26,12,28,21,11,100,67,34,30.51,30.21,29.89,10,9,2,23,3,36,0.01,4,Snow,311
2011-12-22,30,19,8,22,13,7,92,81,69,30.61,30.57,30.42,10,10,10,12,3,16,0.00,2,,186
2011-12-23,27,17,7,20,14,3,92,84,75,30.66,30.53,30.38,10,9,1,5,0,5,0.00,7,,350
2011-12-24,37,29,21,34,28,19,92,81,70,30.61,30.55,30.45,10,10,9,14,2,16,T,8,,200
2011-12-25,41,34,27,34,29,24,100,77,54,30.52,30.18,29.94,10,3,0,26,4,49,0.00,7,Fog,213
2011-12-26,38,33,27,25,21,19,78,63,48,30.34,30.24,30.10,10,10,10,20,7,25,T,5,,213
2011-12-27,42,36,30,34,28,24,92,76,60,30.17,30.07,29.86,10,8,2,14,9,18,0.01,8,Rain-Snow,175
2011-12-28,46,42,37,40,37,34,100,90,79,29.86,29.78,29.62,10,10,7,17,10,22,0.31,8,Rain,167
2011-12-29,45,38,31,39,30,24,86,68,49,29.97,29.73,29.51,10,10,4,24,7,33,0.08,5,Rain,212
2011-12-30,40,35,29,35,31,23,100,82,64,29.76,29.61,29.50,10,8,1,16,7,23,0.17,6,Rain-Snow,209
2011-12-31,36,27,18,23,17,13,84,62,40,30.55,30.27,29.71,10,10,10,28,8,29,0.00,4,,225